Weather in Lembolovo

Russia / Saint-Petersburg and Leningrad Oblast     60°22′56″N   30°13′03″E
temp.,
°C
wind,
m/s
gust,
m/s
humid.,
%
clouds,
%
prec.,
mm/h
press.,
hPa
HPBL,
m
28 september, tue
tue2800:00+6ene11945 0.0 103210
03:00+5ne00951 0.0 103310
06:00+5ene11955 0.0 103310
09:00+8e13875 0.0 1034121
12:00+12ese346353 0.0 1034831
15:00+13e33585 0.0 1034932
18:00+8e23825 0.0 103482
21:00+6se12946 0.0 103518
29 september, wed
wed2900:00+6sse229129 0.0 103619
03:00+5s22935 0.0 103625
06:00+5s22925 0.0 103631
09:00+7s247741 0.0 1036122
12:00+11s235744 0.0 1036979
15:00+12s235436 0.0 10351148
18:00+9sse117345 0.0 103511
21:00+6sse118624 0.0 103510
30 september, thu
thu3000:00+5s228724 0.0 103515
03:00+4s228911 0.0 103522
06:00+3s229335 0.0 103525
09:00+6s247876 0.0 1035132
12:00+11s34585 0.0 1034619
15:00+12s34505 0.0 1033942
18:00+9se226924 0.0 103225
21:00+5s288223 0.0 1032167
1 october, fri
fri100:00+4s288846 0.0 1031165
03:00+4s39895 0.0 1030176
06:00+4s3108929 0.0 1030197
09:00+6s310795 0.0 1029268
12:00+11ssw486579 0.0 1029564
15:00+9ssw387789 0.0 1028481
18:00+8s3783100 0.0 1027338
21:00+7ssw279347 0.0 1028272
2 october, sat
sat200:00+5s289818 0.0 1027182
03:00+5s389716 0.0 1026169
06:00+5s399722 0.0 1025193
09:00+7s412895 0.0 1024334
12:00+11s510685 0.0 1023600
15:00+14s510594 0.0 1022949
18:00+12s5126530 0.0 1021705
21:00+10s5146830 0.0 1020630